Regional Weather Roundup
Issued by NWS Kansas City/Pleasant Hill, MO

Home | Current Version | Previous Version | Graphics & Text | Print | Product List | Glossary Off
Versions: 1 2 3 4 5 6 7 8 9 10 11 12 13 14 15 16 17 18 19 20 21 22 23 24 25 26 27 28 29 30 31 32 33 34 35 36 37 38 39 40 41 42 43 44 45 46 47 48 49 50

000
ASUS43 KEAX 250210
RWREAX

WEATHER ROUNDUP FOR EASTERN KANSAS AND NORTHWEST MISSOURI
NATIONAL WEATHER SERVICE KANSAS CITY/PLEASANT HILL MO
900 PM CDT MON JUL 24 2017

KSZ040-057-103>105-MOZ028-029-037-043-250300-
...KANSAS CITY METROPOLITAN AREA...

CITY           SKY/WX    TMP DP  RH WIND       PRES   REMARKS
K.C. INTL      PTCLDY    80  68  66 E9        29.98S
K.C. DOWNTOWN  CLEAR     81  68  64 E7        29.96R
LEES SUMMIT    CLEAR     77  70  79 E7        29.99S
OLATHE - IXD   CLEAR     80  71  74 E6        29.98R
OLATHE - OJC   CLEAR     79  70  74 SE7       29.98S
LAWRENCE       CLEAR     80  72  76 NE5       29.95S

$$

MOZ001>008-011>017-020>025-030>033-038>040-044>046-053-054-250300-
...NORTHERN AND CENTRAL MISSOURI...

CITY           SKY/WX    TMP DP  RH WIND       PRES   REMARKS
ST. JOSEPH     CLEAR     79  68  69 SE6       29.98R
MOSBY          CLEAR     77  68  73 CALM      29.98S
WARRENSBURG    CLEAR     75  66  73 NE3       29.99R
WHITEMAN AFB   CLEAR     74  74 100 NE6       29.98R
CLINTON        CLEAR     75  68  78 NE7       29.98R
SEDALIA        CLEAR     76  71  85 NE5       30.00R
WARSAW         NOT AVBL
CHILLICOTHE      N/A     73  70  90 CALM      30.01R
KIRKSVILLE     CLEAR     75  64  68 E3        30.02R

$$

MOZ041-047>049-056>058-063>065-088>090-097-250300-
...EASTERN AND SOUTHERN MISSOURI...

CITY           SKY/WX    TMP DP  RH WIND       PRES   REMARKS
ST. LOUIS INTL CLEAR     83  69  62 NE9       30.00R
SPIRIT OF STL  CLEAR     79  66  64 CALM      29.98R
COLUMBIA       CLEAR     75  68  78 NE7       30.00R
JEFFERSON CITY CLEAR     80  68  66 NE6       29.97R
ROLLA          CLEAR     76  67  73 NE6       29.99R
OSAGE BEACH    CLEAR     79  67  66 NE5       29.98R
SPRINGFIELD    CLEAR     80  76  87 SE3       29.98R
BRANSON        PTCLDY    84  72  65 CALM      29.99R
JOPLIN         MOCLDY    86  74  67 CALM      29.97R HX  94
WEST PLAINS    PTCLDY    82  75  79 CALM      30.00R

$$

IAZ060-094-KSZ022-034>040-054-083-096-NEZ052-066-093-250300-
...KANSAS...SOUTHEAST NEBRASKA AND IOWA...

CITY           SKY/WX    TMP DP  RH WIND       PRES   REMARKS
TOPEKA         CLEAR     82  75  79 E5        29.95S
MANHATTAN      CLEAR     85  75  72 SE7       29.93S HX  93
EMPORIA        PTCLDY    83  73  72 S5        29.96R
CHANUTE        CLEAR     83  73  72 S5        29.96R
WICHITA        PTCLDY    87  69  54 S10       29.94R HX  91
OMAHA          PTCLDY    81  67  62 SE14      29.96S
LINCOLN        CLEAR     82  68  62 SE14      29.95S
FALLS CITY     PTCLDY    76  68  76 E6        29.97R
LAMONI         CLEAR     76  66  71 S5        30.01R
DES MOINES     PTCLDY    77  63  61 E8        29.99S

$$




USA.gov is the U.S. government's official web portal to all federal, state and local government web resources and services.